Location: Consuma
(43.7833°N, 11.5833°E)
Time: 18:26:41
(UTC+00:00)

Meteor 2-10 Rocket - Pass Details

Date: 17 February 2020
Orbit: 734 x 885 km, 81.2° (Epoch: 27 March)

Event Time Altitude Azimuth Distance (km) Brightness Sun altitude
Exits shadow 04:27:16 36° 276° (W) 1,233 4.0 -19.3°
Maximum altitude 04:27:41 37° 287° (WNW) 1,218 4.0 -19.2°
Drops below altitude 10° 04:32:32 10° 354° (N) 2,324 5.9 -18.3°
Sets 04:35:02 0° 3° (N) 3,234 6.8 -17.9°
